Hourly Weather Roundup
Issued by NWS Central Illinois

Home | Current Version | Previous Version | Text Only | Print | Product List | Glossary On
Versions: 1 2 3 4 5 6 7 8 9 10 11 12 13 14 15 16 17 18 19 20 21 22 23 24 25 26 27 28 29 30 31 32 33 34 35 36 37 38 39 40 41 42 43 44 45 46 47 48 49 50
000
NZUS43 KILX 022110
HWRILX

AREA WEATHER ROUNDUP
NATIONAL WEATHER SERVICE, LINCOLN IL
300 PM CST FRI DEC 02 2016


CITY           SKY/WX    TMP DP  RH WIND       PRES   REMARKS
BLOOMINGTON    CLOUDY    40  31  70 NW9       30.25R WCI  34
CHAMPAIGN      CLOUDY    41  33  73 W10       30.26R WCI  35
DANVILLE       CLOUDY    39  33  78 W6        30.22R WCI  35
DECATUR        CLOUDY    41  32  70 W6        30.27R
EFFINGHAM      CLOUDY    42  34  72 W9        30.29R
FLORA          PTSUNNY   46  32  58 W7        30.28R
GALESBURG      CLOUDY    40  32  73 W10       30.26R WCI  33
JACKSONVILLE   PTSUNNY   42  31  65 NW7       30.27S
LACON          CLOUDY    40  32  74 NW6       30.25R
LAWRENCEVILLE  CLOUDY    43  31  62 N10       30.28R
LITCHFIELD     CLOUDY    42  32  67 NW6       30.27S
$$


CITY           SKY/WX    TMP DP  RH WIND       PRES   REMARKS
LINCOLN        CLOUDY    42  33  68 W5        30.27R
MACOMB         CLOUDY    42  32  66 NW9       30.29R
MATTOON        CLOUDY    39  30  70 W9        30.26R WCI  33
MT CARMEL AP   CLOUDY    43  32  63 N6        30.27R
OLNEY-NOBLE AP CLOUDY    43  32  65 NW6       30.28R
PARIS          CLOUDY    39  33  78 W13       30.27R WCI  32
PEORIA         CLOUDY    41  30  65 NW9       30.26R
PONTIAC        CLOUDY    40  36  86 NW7       30.25R
RANTOUL        CLOUDY    41  36  81 W7        30.25R
SPRINGFIELD    CLOUDY    44  32  62 W9        30.28R
TAYLORVILLE    CLOUDY    41  31  68 W7        30.28R
$$

...REGIONAL REPORTS...


CITY           SKY/WX    TMP DP  RH WIND       PRES   REMARKS
CHICAGO O`HARE CLOUDY    38  27  64 NW12      30.20R WCI  30
KANKAKEE       CLOUDY    40  33  77 W10       30.23R WCI  33
MOLINE         CLOUDY    40  27  59 NW10      30.26R WCI  33
MOUNT STERLING CLOUDY    43  31  63 W5        30.26S
MOUNT VERNON   NOT AVBL
PITTSFIELD     MOSUNNY   45  32  59 N3        30.28S
QUINCY         PTSUNNY   45  31  58 N3        30.27R
ROCKFORD       CLOUDY    37  27  67 NW10      30.25R WCI  30
$$


CITY           SKY/WX    TMP DP  RH WIND       PRES   REMARKS
BURLINGTON     CLOUDY    41  32  70 NW8       30.26R
CEDAR RAPIDS   CLOUDY    35  29  78 NW14      30.27R WCI  26
DES MOINES     CLOUDY    40  31  70 W5        30.27F
KIRKSVILLE     SUNNY     46  30  53 NW3       30.27R
OTTUMWA        CLOUDY    41  30  65 NW9       30.27R
ST LOUIS       MOSUNNY   48  28  46 W8        30.28S
$$


CITY           SKY/WX    TMP DP  RH WIND       PRES   REMARKS
TERRE HAUTE    CLOUDY    41  30  65 W7        30.26R
EVANSVILLE     SUNNY     47  30  51 NW9       30.28R
INDIANAPOLIS   CLOUDY    40  32  73 W9        30.24R WCI  34
LAFAYETTE      CLOUDY    39  33  79 W8        30.23R WCI  33
MADISON        CLOUDY    32  23  69 NW6       30.22R WCI  26
MILWAUKEE      CLOUDY    36  23  59 NW10      30.21R WCI  28
$$






USA.gov is the U.S. government's official web portal to all federal, state and local government web resources and services.